Location: Argonnex
(45.9500°N, 6.1333°E)
Time: 17:53:56
(UTC+00:00)

CZ-4C R/B - Pass Details

Date: 28 January 2023
Orbit: 456 x 611 km, 98.1° (Epoch: 29 March)

Event Time Altitude Azimuth Distance (km) Brightness Sun altitude
Rises 17:21:02 0° 20° (NNE) 2,778 6.5 -8.3°
Reaches altitude 10° 17:23:21 10° 29° (NNE) 1,848 5.6 -8.7°
Maximum altitude 17:27:05 37° 97° (E) 839 3.8 -9.3°
Drops below altitude 10° 17:30:36 10° 167° (SSE) 1,742 5.9 -9.9°
Sets 17:32:44 0° 176° (S) 2,596 6.9 -10.3°
